Home   Weather   Constantine   Past weeks

Flag for Algeria Past Weather in Constantine, Algeria — Yesterday and Last 2 Weeks

Now
55 °F

Passing clouds.


Feels Like: 55 °F
Forecast: 58 / 80 °F
Wind: 5 mph from Southeast

Location: Constantine Airport

Current Time: Apr 26, 2017 at 5:06:16 am

Latest Report: Apr 26, 2017 at 4:30 am


Visibility: N/A

Pressure: 29.86 "Hg (27.94 "Hg at 557m altitude)

Humidity: 63%

Dew Point: 43 °F

Location of ConstantineLocation

Past Weather in Constantine — Graph

°F

Constantine Temperature Yesterday

Maximum temperature yesterday: 81 °F (at 2:30 pm)
Minimum temperature yesterday: 48 °F (at 6:00 am)
Average temperature yesterday: 66 °F

High & Low Weather Summary for the Past Weeks

 TemperatureHumidityPressure
High81 °F (Apr 25, 2:30 pm)94% (Apr 11, 7:30 am)30.36 "Hg (Apr 11, 7:30 am)
Low34 °F (Apr 22, 5:00 am)10% (Apr 23, 4:00 pm)29.86 "Hg (Apr 25, 3:30 pm)
Average58 °F56%30.11 "Hg
* Reported Apr 11 4:00 am — Apr 26 4:00 am, Constantine, Weather by CustomWeather, © 2017

Note: Actual official high and low records may vary slightly from our data, if they occured in-between our weather recording intervals... More about our weather records

Advertising

Constantine Weather History for the Previous 24 Hours

Scroll right to see more
 ConditionsComfort  
Time TempWeatherWind HumidityBarometerVisibility
4:00 am
Wed, Apr 26
57 °FPassing clouds.2 mph59%29.86 "HgN/A
3:30 am57 °FPassing clouds.2 mph59%29.86 "HgN/A
3:00 am57 °FPassing clouds.3 mph59%29.89 "HgN/A
2:30 am59 °FPassing clouds.6 mph59%29.86 "HgN/A
2:00 am59 °FPassing clouds.2 mph55%29.89 "HgN/A
1:00 am59 °FPassing clouds.2 mph55%29.89 "HgN/A
12:30 am61 °FPassing clouds.8 mph48%29.89 "HgN/A
12:00 am61 °FPassing clouds.7 mph52%29.89 "HgN/A
11:30 pm
Tue, Apr 25
61 °FPassing clouds.7 mph52%29.89 "HgN/A
11:00 pm63 °FPassing clouds.6 mph52%29.89 "HgN/A
10:30 pm64 °FPartly cloudy.5 mph49%29.89 "HgN/A
10:00 pm64 °FPartly cloudy.3 mph49%29.89 "HgN/A
9:30 pm66 °FPartly cloudy.7 mph49%29.89 "HgN/A
9:00 pm66 °FPartly cloudy.2 mph49%29.89 "HgN/A
8:30 pm68 °FPartly cloudy.2 mph43%29.86 "HgN/A
8:00 pm70 °FPartly cloudy.6 mph40%29.86 "HgN/A
7:30 pm70 °FPassing clouds.8 mph40%29.86 "HgN/A
7:00 pm72 °FPartly sunny.9 mph41%29.86 "HgN/A
6:30 pm73 °FPartly sunny.12 mph38%29.86 "HgN/A
6:00 pm73 °FPartly sunny.14 mph38%29.86 "HgN/A
5:30 pm75 °FPartly sunny.13 mph36%29.86 "HgN/A
5:00 pm79 °FScattered clouds.9 mph28%29.86 "HgN/A
4:30 pm81 °FScattered clouds.8 mph24%29.86 "HgN/A
3:30 pm81 °FScattered clouds.6 mph24%29.86 "HgN/A
3:00 pm81 °FScattered clouds.6 mph24%29.89 "HgN/A
2:30 pm81 °FScattered clouds.7 mph23%29.89 "HgN/A
2:00 pm79 °FScattered clouds.7 mph26%29.92 "HgN/A
1:30 pm79 °FScattered clouds.8 mph28%29.92 "HgN/A
1:00 pm79 °FScattered clouds.9 mph32%29.92 "HgN/A
12:30 pm77 °FScattered clouds.5 mph34%29.95 "HgN/A
12:00 pm77 °FScattered clouds.6 mph32%29.95 "HgN/A
11:30 am77 °FSunny.3 mph34%29.95 "Hg10 mi
11:00 am75 °FSunny.2 mph34%29.98 "Hg10 mi
10:30 am72 °FPassing clouds.3 mph41%29.95 "HgN/A
10:00 am70 °FSunny.3 mph43%29.98 "Hg10 mi
9:30 am66 °FPassing clouds.3 mph49%29.98 "HgN/A
9:00 am64 °FSunny.2 mph49%29.98 "Hg10 mi
8:30 am61 °FPassing clouds.3 mph55%29.98 "HgN/A
8:00 am57 °FSunny.No wind63%29.98 "Hg10 mi
7:30 am54 °FSunny.No wind67%29.98 "Hg10 mi
6:30 am48 °FSunny.No wind71%29.95 "Hg10 mi
6:00 am48 °FSunny.No wind71%29.95 "Hg10 mi
5:30 am50 °FClear.2 mph71%29.95 "Hg10 mi
Weather by CustomWeather, © 2017

See weather overviewHow to use our weather pages